Location: Kellogg
(38.0159°N, 90.0546°W)
Time: 07:12:58
(UTC+00:00)

S-56A Canister/Altair - Pass Details

Date: 19 September 2024
Orbit: 636 x 2487 km, 38.9° (Epoch: 09 October)

Event Time Altitude Azimuth Distance (km) Brightness Sun altitude
Rises 05:47:40 0° 282° (WNW) 4,242 - -50.7°
Reaches altitude 10° 05:50:35 10° 272° (W) 3,518 - -50.7°
Maximum altitude 05:58:28 32° 214° (SSW) 2,776 - -50.7°
Drops below altitude 10° 06:09:05 10° 158° (SSE) 4,766 - -50.6°
Sets 06:13:50 0° 150° (SSE) 5,963 - -50.4°
